Regional Weather Roundup
Issued by NWS

Home | Current Version | Previous Version | Text Only | Print | Product List | Glossary On
Versions: 1 2 3 4 5 6 7 8 9 10 11 12 13 14 15 16 17 18 19 20 21 22 23 24 25 26 27 28 29 30 31 32 33 34 35 36 37 38 39 40 41 42 43 44 45 46 47 48 49 50
000
ASUS44 KLUB 242101
RWRTX
WEST TEXAS WEATHER ROUNDUP
NATIONAL WEATHER SERVICE LUBBOCK TX
400 PM CDT SUN MAY 24 2015

NOTE: "FAIR" INDICATES FEW OR NO CLOUDS BELOW 12,000 FEET WITH NO
SIGNIFICANT WEATHER AND/OR OBSTRUCTIONS TO VISIBILITY.

TXZ004-006>008-010-012-014-016-OKZ002-242200-
TEXAS PANHANDLE/OKLAHOMA PANHANDLE

CITY           SKY/WX    TMP DP  RH WIND       PRES   REMARKS
AMARILLO       SUNNY     76  52  43 S16       29.81F
BORGER         SUNNY     78  54  43 SW13G18   29.78F
CANADIAN       MOSUNNY   74  60  62 S15       29.80S
DALHART        MOSUNNY   74  46  36 S12       29.81F
DUMAS          SUNNY     75  50  41 SW13      29.80F
GUYMON         MOSUNNY   73  58  59 VRB5      29.77F
$$

TXZ026-029-035-045-048-242200-
SOUTHERN PANHANDLE/SOUTH PLAINS/ROLLING PLAINS

CITY           SKY/WX    TMP DP  RH WIND       PRES   REMARKS
CHILDRESS      MOSUNNY   78  62  57 S17       29.79F
LUBBOCK        MOSUNNY   80  41  24 SW13G26   29.81F
$$

TXZ052-054-060>062-072-078-127-140-154-169-242200-
PERMIAN BASIN/CONCHO VALLEY/BIG COUNTRY/EDWARDS PLATEAU

CITY           SKY/WX    TMP DP  RH WIND       PRES   REMARKS
ABILENE        MOSUNNY   82  64  54 S15       29.84F
JUNCTION       MOSUNNY   82  63  52 SW6       29.86F
MIDLAND        SUNNY     83  33  16 SW12G21   29.85F
ODESSA           N/A    N/A N/A N/A MISG      29.86F
SAN ANGELO     SUNNY     82  64  54 S6        29.83F
SWEETWATER     MOSUNNY   81  61  51 S13G18    29.87F
WINK           SUNNY     86  25  11 W12G24    29.82F
$$

TXZ055-058-074-075-080-082-242200-
FAR WEST/SOUTHWEST MOUNTAINS/TRANS PECOS

CITY           SKY/WX    TMP DP  RH WIND       PRES   REMARKS
EL PASO        MOSUNNY   79  19  10 W14       29.89F
FORT STOCKTON  SUNNY     84  28  13 W12G24    29.86F
GUADALUPE PASS SUNNY     76  21  12 W33G40    29.94F
MARFA          SUNNY     75  28  17 S14       29.99F
$$

TXZ014-016-019-021>030-083-242200
TEXAS TECH WEST TEXAS MESONET/TEXAS PANHANDLE/NORTHERN SOUTH PLAINS

CITY           SKY/WX    TMP DP  RH WIND       PRES   REMARKS
ABERNATHY 5ENE   N/A     80  40  24 SW14      29.83F
AMARILLO 9NNE    N/A     77  55  46 S13       29.79F
AMARILLO 7SSE    N/A     76  55  46 S13       29.83F
AMHERST 1NE      N/A     79  37  22 W14       29.83S
BOOTLEG 11WNW    N/A     74  41  30 SW17      29.87F
CANADIAN 6E      N/A     72  61  68 S14       29.79F
CAPROCK CYN SP   N/A     77  60  55 S15       29.81F
CHILDRESS 2NNE   N/A     79  60  52 S16       29.79F
CLARENDON 2WSW   N/A     75  60  58 S15       29.81S
CLAUDE 12SW      N/A     75  54  47 SE10      29.82F
DIMMITT 2NE      N/A     75  48  37 SW8       29.83F
FLOYDADA 2NNE    N/A     78  50  36 S14G23    29.82F
FRIONA 2NE       N/A     76  42  29 W6        29.84F
GOODLETT 3W      N/A     79  63  57 S14       29.78F
HART 3N          N/A     76  44  31 SW10      29.83F
HEREFORD 2NW     N/A     74  47  37 W8        29.83F
MCLEAN 1E        N/A     71  60  67 S13       29.81S
MEMPHIS 1NE      N/A     76  61  59 S10       29.79F
MULESHOE 2SSW    N/A     78  37  22 W13       29.84S
OLTON 6S         N/A     80  34  19 W13       29.81F
PALO DURO SP     N/A     77  51  40 S12       29.83F
PAMPA 2E         N/A     73  59  62 S13       29.82F
PLAINVIEW 1S     N/A     77  49  37 S10       29.82S
SILVERTON 7ESE   N/A     76  57  51 S12       29.82F
TULIA 2ENE       N/A     76  50  40 S14       29.82F
UMBARGER 3NNE    N/A     76  52  44 SW12      29.84S
$$

TXZ033>036-039>041-045>048-242200
TEXAS TECH WEST TEXAS MESONET/SOUTH PLAINS

CITY           SKY/WX    TMP DP  RH WIND       PRES   REMARKS
AIKEN 3WSW       N/A     78  51  39 S12       29.83F
ANDREWS 2NE      N/A     82  25  12 SW15      29.86F
ANTON 6SSW       N/A     81  38  21 SW15      29.82S
BROWNFIELD 2S    N/A     78  38  23 W14       29.85S
DENVR CTY 7WNW   N/A     78  25  14 SW18      29.86F
GAIL 2ESE        N/A     81  42  24 SW13      29.83F
LAMESA 2SE       N/A     79  44  28 SW12      29.85F
LEVELLAND 4S     N/A     79  36  21 SW14      29.84S
LUBBOCK 3WNW     N/A     80  38  21 SW14      29.82F
MORTON 1ENE      N/A     79  32  18 W15       29.84F
ODONNELL 1N      N/A     80  34  19 SW20      29.85S
PLAINS 3N        N/A     77  37  23 W15G25    29.86F
RALLS 1SE        N/A    N/A N/A N/A S15       29.83F
REESE CENTER     N/A     79  35  20 SW18      29.82F
SEAGRAVES 1SW    N/A     80  33  18 SW13      29.85F
SEMINOLE 2NNE    N/A     80  27  14 SW14      29.85F
SLATON 2NE       N/A     80  38  22 SW16      29.82F
SNYDER 3E        N/A     82  59  45 S13       29.83F
SUNDOWN 8SW      N/A     78  37  22 SW15      29.86S
TAHOKA 3NNE      N/A     80  39  22 SW18      29.83F
WOLFFORTH 6SSW   N/A     81  37  20 SW13      29.83S
$$

TXZ031-032-036>038-042>044-242200-
TEXAS TECH WEST TEXAS MESONET/ROLLING PLAINS

CITY           SKY/WX    TMP DP  RH WIND       PRES   REMARKS
ASPERMONT 3NE    N/A     83  61  47 S13       29.81F
FLUVANNA 3WNW    N/A     82  40  22 SW18      29.83F
GRAHAM 5SSW      N/A     80  34  19 S15       29.83F
GUTHRIE 10WSW    N/A     83  55  38 S14       29.80F
HASKELL 1NW      N/A     81  59  47 S12       29.81F
JAYTON 1SSE      N/A     82  56  40 S12       29.81F
KNOX CITY 3NW    N/A     83  58  42 S15       29.80F
LK A HENRY 1NW   N/A     84  44  24 SW12      29.81F
NORTHFIELD 1S    N/A     79  62  56 S14       29.79F
ODELL 4ENE       N/A     78  65  64 S12       29.80F
PADUCAH 10SW     N/A     80  60  49 S15       29.79F
POST 1NE         N/A     83  38  20 S15       29.81F
RRING SPRGS 3N   N/A     78  60  53 S14       29.81F
SEYMOUR 3NW      N/A     80  65  58 S12       29.80S
SPUR 1W          N/A     79  55  43 S9        29.81F
WEINERT 2NNE     N/A     82  62  51 S18       29.80F
WHITE RVR 6NE    N/A     80  57  45 S13       29.81F
$$

TXZ052-054-060>062-072-078-127-140-154-169-242200-
TEXAS TECH WEST TEXAS MESONET/PERMIAN BASIN/
CONCHO VALLEY/BIG COUNTRY/EDWARDS PLATEAU

CITY           SKY/WX    TMP DP  RH WIND       PRES   REMARKS
COYANOSA 2N      N/A     85  35  16 S7        29.85F
JUNCTION 1SSW    N/A     82  65  57 SW5       29.87F
MERTZON 3NNE     N/A     81  62  53 S8        29.85F
SAN ANGELO 7NW   N/A     83  61  47 SE8       29.84F
STRLNG CT 4WSW   N/A     83  51  31 SW5       29.85F
ST LAWRNCE 5SW   N/A     82  38  21 SW10      29.87F
SWEETWATR 11SW   N/A     79  62  56 S13       29.86F
WALL 1E          N/A     82  60  48 S7        29.86F
$$

TXZ055-058-074-075-080-082-242200-
TEXAS TECH WEST TEXAS MESONET/FAR WEST/SOUTHWEST MOUNTAINS/TRANS PECOS

CITY           SKY/WX    TMP DP  RH WIND       PRES   REMARKS
PRSMN GAP BBNP   N/A     86  35  16 S7        29.87F
$$



USA.gov is the U.S. government's official web portal to all federal, state and local government web resources and services.